QPF
0.03 0.04 0.05 0.08 0.09 0.10 0.11 0.11 0.12 0.14 0.17 0.18 0.16 0.14 0.11 0.10 0.09 0.09 0.09 0.09 0.09 0.07 0.07 0.07 0.07 0.07 0.06 0.06 0.05 0.06 0.06 0.04 0.04 0.06 0.05 0.04 0.04 0.04 0.03 0.02 0.02 0.01 0.01
0.04 0.04 0.05 0.08 0.10 0.10 0.08 0.09 0.13 0.16 0.18 0.18 0.16 0.13 0.13 0.12 0.09 0.08 0.08 0.08 0.09 0.09 0.09 0.08 0.08 0.07 0.07 0.06 0.06 0.07 0.06 0.05 0.06 0.06 0.05 0.04 0.03 0.03 0.02 0.02 0.02 0.02 0.02
0.04 0.05 0.05 0.08 0.10 0.11 0.08 0.08 0.08 0.10 0.16 0.19 0.15 0.12 0.12 0.10 0.07 0.07 0.07 0.09 0.08 0.08 0.07 0.06 0.08 0.09 0.08 0.06 0.05 0.05 0.06 0.06 0.07 0.07 0.07 0.05 0.03 0.02 0.02 0.02 0.01 0.01 0.02
0.05 0.05 0.05 0.07 0.09 0.10 0.08 0.07 0.08 0.08 0.12 0.11 0.11 0.11 0.08 0.07 0.06 0.07 0.07 0.06 0.07 0.07 0.07 0.07 0.07 0.08 0.10 0.10 0.09 0.07 0.07 0.07 0.08 0.07 0.06 0.06 0.05 0.03 0.02 0.01 0.01 0.01 0.02
0.06 0.06 0.06 0.07 0.10 0.11 0.08 0.08 0.11 0.09 0.09 0.09 0.09 0.08 0.06 0.06 0.06 0.06 0.06 0.05 0.06 0.07 0.07 0.06 0.07 0.06 0.07 0.08 0.08 0.10 0.10 0.10 0.09 0.07 0.06 0.05 0.04 0.03 0.03 0.02 0.01 0.01 0.01
0.08 0.08 0.08 0.08 0.08 0.10 0.09 0.08 0.09 0.10 0.10 0.10 0.08 0.06 0.05 0.05 0.05 0.04 0.05 0.06 0.06 0.07 0.08 0.09 0.09 0.08 0.08 0.08 0.08 0.08 0.10 0.10 0.08 0.06 0.06 0.05 0.04 0.04 0.04 0.03 0.02 0.01 0.01
0.08 0.09 0.08 0.08 0.07 0.06 0.06 0.06 0.06 0.07 0.09 0.09 0.07 0.04 0.03 0.04 0.04 0.05 0.05 0.06 0.08 0.10 0.09 0.08 0.07 0.07 0.07 0.06 0.07 0.07 0.07 0.07 0.08 0.08 0.08 0.07 0.05 0.04 0.04 0.04 0.04 0.03 0.02
0.07 0.07 0.06 0.06 0.07 0.06 0.06 0.06 0.04 0.04 0.05 0.06 0.05 0.03 0.02 0.04 0.04 0.06 0.07 0.07 0.08 0.09 0.08 0.07 0.04 0.04 0.04 0.04 0.05 0.07 0.08 0.07 0.08 0.08 0.09 0.08 0.06 0.04 0.03 0.03 0.05 0.05 0.04
0.05 0.06 0.08 0.06 0.07 0.07 0.07 0.07 0.07 0.06 0.05 0.05 0.04 0.03 0.03 0.05 0.06 0.08 0.10 0.10 0.10 0.09 0.07 0.05 0.04 0.04 0.04 0.05 0.08 0.09 0.09 0.10 0.10 0.09 0.08 0.08 0.05 0.03 0.02 0.02 0.03 0.04 0.05
0.05 0.06 0.09 0.10 0.10 0.08 0.06 0.06 0.07 0.06 0.05 0.04 0.03 0.03 0.05 0.08 0.09 0.11 0.11 0.10 0.10 0.11 0.09 0.07 0.06 0.05 0.06 0.08 0.09 0.08 0.08 0.08 0.08 0.07 0.06 0.05 0.05 0.03 0.02 0.02 0.02 0.02 0.04
0.04 0.04 0.06 0.08 0.07 0.06 0.05 0.03 0.03 0.03 0.03 0.03 0.04 0.04 0.05 0.05 0.05 0.04 0.05 0.06 0.07 0.08 0.07 0.05 0.04 0.04 0.05 0.06 0.07 0.07 0.08 0.09 0.07 0.05 0.03 0.03 0.03 0.02 0.02 0.02 0.01 0.02 0.02
0.02 0.02 0.03 0.03 0.04 0.04 0.04 0.03 0.04 0.04 0.03 0.03 0.03 0.03 0.03 0.04 0.06 0.05 0.04 0.03 0.03 0.03 0.03 0.03 0.03 0.02 0.04 0.05 0.06 0.05 0.05 0.05 0.04 0.04 0.04 0.03 0.03 0.01 0.01 0.01 0.01 0.01 0.01
0.02 0.02 0.02 0.02 0.02 0.03 0.03 0.04 0.03 0.03 0.03 0.02 0.02 0.02 0.02 0.03 0.03 0.02 0.02 0.02 0.02 0.03 0.03 0.02 0.02 0.02 0.03 0.04 0.04 0.04 0.03 0.03 0.03 0.03 0.03 0.02 0.03 0.02 0.01 0.01 0.02 0.02 0.02
0.02 0.02 0.02 0.02 0.02 0.02 0.03 0.04 0.02 0.02 0.01 0.01 0.01 0.01 0.01 0.02 0.02 0.02 0.02 0.02 0.03 0.03 0.03 0.02 0.02 0.02 0.02 0.04 0.05 0.04 0.03 0.02 0.02 0.02 0.02 0.02 0.02 0.02 0.02 0.02 0.02 0.02 0.02
0.03 0.02 0.02 0.02 0.03 0.03 0.02 0.02 0.01 0.01 0.01 0.01 0.01 0.01 0.01 0.02 0.02 0.02 0.02 0.03 0.02 0.02 0.02 0.02 0.01 0.01 0.01 0.03 0.04 0.04 0.03 0.02 0.02 0.02 0.01 0.02 0.02 0.02 0.02 0.01 0.01 0.01 0.01
0.03 0.03 0.02 0.03 0.03 0.02 0.02 0.01 0.00 0.01 0.01 0.01 0.01 0.01 0.01 0.01 0.02 0.02 0.02 0.02 0.02 0.02 0.02 0.02 0.01 0.01 0.02 0.04 0.04 0.04 0.03 0.02 0.02 0.01 0.01 0.01 0.02 0.02 0.02 0.02 0.01 0.01 0.01
0.02 0.03 0.03 0.02 0.02 0.03 0.02 0.01 0.01 0.01 0.01 0.01 0.01 0.01 0.01 0.01 0.01 0.01 0.01 0.01 0.01 0.01 0.02 0.02 0.02 0.02 0.02 0.05 0.04 0.03 0.03 0.02 0.02 0.01 0.01 0.01 0.01 0.01 0.01 0.02 0.02 0.01 0.01
0.02 0.02 0.02 0.03 0.02 0.02 0.01 0.01 0.01 0.01 0.01 0.01 0.01 0.01 0.01 0.02 0.01 0.02 0.03 0.02 0.02 0.03 0.03 0.03 0.03 0.02 0.03 0.04 0.03 0.03 0.02 0.01 0.01 0.01 0.01 0.02 0.02 0.02 0.01 0.01 0.01 0.01 0.01
0.01 0.02 0.01 0.02 0.01 0.01 0.00 0.00 0.00 0.01 0.01 0.02 0.01 0.01 0.01 0.02 0.02 0.02 0.02 0.03 0.02 0.02 0.02 0.02 0.02 0.02 0.02 0.02 0.02 0.02 0.01 0.01 0.01 0.01 0.01 0.02 0.01 0.01 0.01 0.01 0.01 0.01 0.00
0.01 0.01 0.01 0.01 0.01 0.00 0.01 0.00 0.00 0.01 0.01 0.01 0.02 0.03 0.02 0.02 0.02 0.03 0.01 0.01 0.01 0.01 0.01 0.01 0.02 0.02 0.02 0.02 0.02 0.01 0.01 0.01 0.01 0.01 0.01 0.01 0.01 0.01 0.01 0.01 0.01 0.01 0.01
0.01 0.02 0.01 0.01 0.01 0.01 0.01 0.01 0.00 0.01 0.01 0.01 0.01 0.03 0.03 0.03 0.03 0.03 0.03 0.02 0.01 0.01 0.01 0.01 0.01 0.02 0.03 0.03 0.02 0.02 0.02 0.01 0.01 0.01 0.01 0.01 0.01 0.01 0.01 0.01 0.01 0.01 0.01
0.01 0.02 0.02 0.02 0.02 0.01 0.00 0.00 0.01 0.01 0.01 0.01 0.01 0.02 0.02 0.02 0.02 0.01 0.01 0.01 0.00 0.00 0.00 0.00 0.01 0.01 0.02 0.02 0.03 0.03 0.02 0.01 0.01 0.01 0.01 0.00 0.00 0.00 0.00 0.00 0.01 0.00 0.00
0.01 0.02 0.03 0.02 0.02 0.02 0.01 0.01 0.01 0.01 0.01 0.02 0.01 0.02 0.02 0.02 0.02 0.01 0.00 0.00 0.00 0.00 0.00 0.01 0.01 0.01 0.01 0.01 0.01 0.01 0.01 0.01 0.00 0.00 0.00 0.00 0.00 0.01 0.00 0.00 0.01 0.01 0.01
0.01 0.01 0.02 0.02 0.01 0.01 0.01 0.01 0.01 0.01 0.01 0.02 0.01 0.02 0.02 0.02 0.02 0.01 0.00 0.00 0.00 0.01 0.01 0.01 0.01 0.01 0.01 0.00 0.00 0.00 0.00 0.00 0.01 0.01 0.01 0.01 0.01 0.01 0.00 0.00 0.00 0.00 0.00
0.01 0.01 0.02 0.02 0.01 0.01 0.01 0.00 0.00 0.01 0.02 0.02 0.02 0.02 0.02 0.02 0.02 0.01 0.00 0.00 0.00 0.01 0.02 0.02 0.02 0.01 0.00 0.00 0.00 0.00 0.00 0.00 0.00 0.00 0.00 0.00 0.00 0.00 0.00 0.00 0.00 0.00 0.00
0.01 0.01 0.01 0.02 0.01 0.01 0.00 0.00 0.00 0.00 0.02 0.02 0.02 0.02 0.02 0.02 0.01 0.01 0.00 0.00 0.00 0.01 0.01 0.02 0.02 0.01 0.01 0.00 0.00 0.00 0.01 0.00 0.00 0.00 0.00 0.01 0.01 0.01 0.00 0.00 0.00 0.00 0.01
MSLP
1008.06 1007.69 1007.32 1006.95 1006.61 1006.30 1006.05 1005.88 1005.79 1005.80 1005.90 1006.07 1006.29 1006.55 1006.84 1007.14 1007.45 1007.77 1008.10 1008.45 1008.80 1009.17 1009.55 1009.91 1010.27 1010.61 1010.93 1011.23 1011.51 1011.77 1012.01 1012.23 1012.41 1012.55 1012.65 1012.68 1012.66 1012.59 1012.48 1012.36 1012.24 1012.15 1012.08
1008.02 1007.76 1007.49 1007.21 1006.92 1006.63 1006.37 1006.17 1006.04 1006.00 1006.05 1006.18 1006.37 1006.61 1006.87 1007.14 1007.41 1007.70 1008.00 1008.33 1008.67 1009.04 1009.42 1009.80 1010.17 1010.51 1010.82 1011.09 1011.33 1011.55 1011.73 1011.91 1012.05 1012.18 1012.27 1012.32 1012.33 1012.31 1012.23 1012.14 1012.03 1011.93 1011.84
1007.65 1007.51 1007.37 1007.21 1007.01 1006.77 1006.54 1006.34 1006.20 1006.14 1006.17 1006.29 1006.46 1006.69 1006.94 1007.19 1007.46 1007.73 1008.01 1008.32 1008.66 1009.02 1009.40 1009.78 1010.15 1010.47 1010.76 1010.99 1011.18 1011.34 1011.47 1011.59 1011.71 1011.83 1011.93 1012.02 1012.07 1012.08 1012.05 1011.98 1011.88 1011.76 1011.64
1006.98 1006.96 1006.96 1006.92 1006.83 1006.68 1006.51 1006.34 1006.21 1006.16 1006.20 1006.32 1006.51 1006.75 1007.02 1007.29 1007.57 1007.85 1008.13 1008.45 1008.79 1009.15 1009.52 1009.89 1010.24 1010.55 1010.79 1010.98 1011.12 1011.22 1011.30 1011.39 1011.48 1011.59 1011.71 1011.83 1011.92 1011.98 1011.98 1011.92 1011.81 1011.67 1011.50
1006.13 1006.21 1006.33 1006.41 1006.43 1006.38 1006.28 1006.17 1006.08 1006.06 1006.13 1006.29 1006.51 1006.80 1007.11 1007.43 1007.74 1008.05 1008.37 1008.70 1009.05 1009.41 1009.79 1010.15 1010.47 1010.74 1010.95 1011.09 1011.17 1011.23 1011.27 1011.33 1011.41 1011.53 1011.66 1011.80 1011.93 1012.01 1012.03 1011.97 1011.85 1011.67 1011.44
1005.28 1005.44 1005.65 1005.84 1005.96 1006.00 1005.97 1005.91 1005.88 1005.91 1006.01 1006.22 1006.50 1006.85 1007.22 1007.61 1007.99 1008.35 1008.72 1009.08 1009.45 1009.82 1010.19 1010.53 1010.83 1011.06 1011.23 1011.33 1011.38 1011.40 1011.41 1011.45 1011.53 1011.64 1011.79 1011.95 1012.09 1012.18 1012.20 1012.13 1011.98 1011.75 1011.46
1004.64 1004.83 1005.11 1005.37 1005.58 1005.69 1005.72 1005.72 1005.74 1005.81 1005.97 1006.22 1006.56 1006.97 1007.42 1007.87 1008.33 1008.76 1009.17 1009.58 1009.97 1010.35 1010.71 1011.03 1011.30 1011.51 1011.64 1011.71 1011.73 1011.72 1011.72 1011.74 1011.81 1011.92 1012.07 1012.23 1012.37 1012.46 1012.47 1012.37 1012.18 1011.90 1011.55
1004.38 1004.59 1004.91 1005.22 1005.47 1005.63 1005.71 1005.75 1005.80 1005.91 1006.11 1006.41 1006.79 1007.26 1007.77 1008.29 1008.81 1009.30 1009.76 1010.20 1010.61 1010.99 1011.34 1011.64 1011.88 1012.05 1012.15 1012.19 1012.19 1012.16 1012.14 1012.15 1012.21 1012.32 1012.46 1012.61 1012.74 1012.81 1012.79 1012.67 1012.44 1012.11 1011.71
1004.64 1004.86 1005.18 1005.51 1005.78 1005.96 1006.07 1006.13 1006.20 1006.33 1006.55 1006.87 1007.30 1007.80 1008.35 1008.91 1009.47 1010.00 1010.49 1010.94 1011.36 1011.73 1012.06 1012.33 1012.53 1012.67 1012.74 1012.75 1012.72 1012.67 1012.64 1012.64 1012.69 1012.77 1012.89 1013.02 1013.12 1013.16 1013.11 1012.96 1012.71 1012.35 1011.93
1005.45 1005.66 1005.97 1006.29 1006.55 1006.74 1006.85 1006.92 1006.99 1007.13 1007.35 1007.68 1008.11 1008.61 1009.17 1009.75 1010.32 1010.86 1011.36 1011.81 1012.21 1012.56 1012.86 1013.09 1013.25 1013.35 1013.38 1013.36 1013.30 1013.23 1013.18 1013.15 1013.17 1013.23 1013.32 1013.41 1013.48 1013.49 1013.41 1013.24 1012.97 1012.60 1012.16
1006.75 1006.95 1007.23 1007.52 1007.76 1007.92 1008.01 1008.07 1008.14 1008.27 1008.48 1008.79 1009.20 1009.69 1010.23 1010.79 1011.34 1011.86 1012.34 1012.77 1013.14 1013.46 1013.71 1013.90 1014.02 1014.07 1014.06 1014.00 1013.91 1013.81 1013.71 1013.65 1013.63 1013.65 1013.70 1013.75 1013.77 1013.75 1013.65 1013.47 1013.19 1012.83 1012.40
1008.38 1008.55 1008.79 1009.03 1009.23 1009.35 1009.42 1009.45 1009.51 1009.62 1009.81 1010.09 1010.47 1010.92 1011.42 1011.93 1012.45 1012.93 1013.37 1013.77 1014.11 1014.38 1014.60 1014.74 1014.81 1014.82 1014.76 1014.65 1014.52 1014.37 1014.24 1014.13 1014.07 1014.03 1014.03 1014.02 1014.01 1013.95 1013.82 1013.63 1013.36 1013.01 1012.61
1010.12 1010.26 1010.44 1010.62 1010.75 1010.83 1010.87 1010.88 1010.93 1011.02 1011.19 1011.44 1011.77 1012.17 1012.62 1013.09 1013.55 1013.98 1014.38 1014.74 1015.04 1015.28 1015.45 1015.56 1015.59 1015.56 1015.46 1015.31 1015.12 1014.93 1014.74 1014.58 1014.45 1014.36 1014.29 1014.23 1014.17 1014.07 1013.92 1013.72 1013.45 1013.13 1012.75
1011.76 1011.85 1011.97 1012.07 1012.14 1012.17 1012.17 1012.18 1012.21 1012.29 1012.44 1012.67 1012.97 1013.32 1013.71 1014.12 1014.53 1014.92 1015.29 1015.61 1015.88 1016.09 1016.25 1016.33 1016.33 1016.26 1016.13 1015.93 1015.71 1015.46 1015.22 1015.00 1014.81 1014.65 1014.52 1014.40 1014.28 1014.14 1013.96 1013.74 1013.48 1013.17 1012.81
1013.13 1013.17 1013.21 1013.23 1013.24 1013.23 1013.21 1013.21 1013.24 1013.33 1013.48 1013.69 1013.95 1014.27 1014.61 1014.98 1015.34 1015.69 1016.02 1016.32 1016.58 1016.78 1016.93 1016.99 1016.99 1016.89 1016.73 1016.51 1016.25 1015.96 1015.67 1015.39 1015.14 1014.92 1014.72 1014.54 1014.35 1014.17 1013.95 1013.71 1013.43 1013.13 1012.78
1014.13 1014.11 1014.08 1014.04 1014.00 1013.96 1013.93 1013.93 1013.99 1014.09 1014.24 1014.45 1014.70 1014.99 1015.29 1015.62 1015.95 1016.27 1016.58 1016.87 1017.12 1017.33 1017.47 1017.55 1017.53 1017.44 1017.27 1017.03 1016.73 1016.41 1016.08 1015.75 1015.45 1015.17 1014.91 1014.66 1014.41 1014.17 1013.91 1013.63 1013.34 1013.02 1012.67
1014.75 1014.68 1014.60 1014.51 1014.44 1014.39 1014.37 1014.39 1014.47 1014.61 1014.78 1014.99 1015.24 1015.51 1015.79 1016.09 1016.39 1016.69 1016.99 1017.28 1017.53 1017.74 1017.90 1017.98 1017.98 1017.89 1017.71 1017.47 1017.16 1016.82 1016.46 1016.09 1015.74 1015.40 1015.09 1014.78 1014.48 1014.17 1013.87 1013.55 1013.21 1012.87 1012.51
1015.05 1014.94 1014.83 1014.73 1014.65 1014.61 1014.62 1014.69 1014.81 1014.98 1015.18 1015.41 1015.66 1015.92 1016.19 1016.47 1016.75 1017.03 1017.32 1017.60 1017.85 1018.07 1018.24 1018.33 1018.33 1018.25 1018.09 1017.84 1017.53 1017.18 1016.80 1016.41 1016.02 1015.65 1015.28 1014.92 1014.57 1014.21 1013.85 1013.47 1013.10 1012.72 1012.34
1015.11 1015.01 1014.91 1014.81 1014.76 1014.76 1014.82 1014.93 1015.11 1015.31 1015.55 1015.81 1016.06 1016.32 1016.58 1016.84 1017.11 1017.37 1017.65 1017.91 1018.16 1018.38 1018.54 1018.63 1018.65 1018.57 1018.41 1018.17 1017.87 1017.51 1017.13 1016.72 1016.31 1015.91 1015.50 1015.09 1014.69 1014.28 1013.87 1013.45 1013.03 1012.61 1012.19
1015.06 1015.00 1014.93 1014.88 1014.87 1014.93 1015.04 1015.21 1015.43 1015.69 1015.96 1016.24 1016.51 1016.77 1017.03 1017.27 1017.52 1017.77 1018.03 1018.27 1018.51 1018.71 1018.86 1018.95 1018.95 1018.88 1018.72 1018.48 1018.18 1017.83 1017.45 1017.04 1016.62 1016.19 1015.75 1015.31 1014.86 1014.41 1013.94 1013.48 1013.01 1012.55 1012.10
1014.98 1014.97 1014.97 1014.99 1015.04 1015.16 1015.33 1015.55 1015.82 1016.12 1016.42 1016.72 1017.01 1017.27 1017.53 1017.77 1018.01 1018.25 1018.48 1018.71 1018.91 1019.09 1019.21 1019.28 1019.27 1019.19 1019.03 1018.79 1018.50 1018.16 1017.78 1017.37 1016.94 1016.50 1016.04 1015.57 1015.08 1014.59 1014.08 1013.57 1013.07 1012.57 1012.07
1014.91 1014.98 1015.05 1015.13 1015.26 1015.43 1015.65 1015.92 1016.22 1016.55 1016.87 1017.19 1017.50 1017.79 1018.05 1018.30 1018.53 1018.76 1018.98 1019.18 1019.36 1019.50 1019.60 1019.63 1019.61 1019.51 1019.34 1019.11 1018.82 1018.49 1018.12 1017.71 1017.29 1016.83 1016.36 1015.87 1015.35 1014.82 1014.28 1013.73 1013.18 1012.63 1012.10
1014.86 1015.01 1015.15 1015.29 1015.47 1015.68 1015.93 1016.23 1016.55 1016.89 1017.24 1017.58 1017.91 1018.21 1018.50 1018.76 1019.01 1019.24 1019.45 1019.63 1019.79 1019.90 1019.97 1019.97 1019.92 1019.81 1019.64 1019.41 1019.14 1018.81 1018.46 1018.07 1017.64 1017.19 1016.70 1016.19 1015.65 1015.08 1014.51 1013.92 1013.33 1012.74 1012.16
1014.81 1015.02 1015.21 1015.40 1015.60 1015.83 1016.10 1016.40 1016.73 1017.07 1017.43 1017.79 1018.14 1018.47 1018.79 1019.08 1019.35 1019.60 1019.81 1019.99 1020.13 1020.22 1020.26 1020.25 1020.19 1020.07 1019.89 1019.68 1019.42 1019.12 1018.78 1018.40 1017.99 1017.54 1017.05 1016.52 1015.96 1015.37 1014.75 1014.13 1013.50 1012.87 1012.23
1014.73 1014.98 1015.20 1015.41 1015.62 1015.85 1016.11 1016.39 1016.70 1017.04 1017.40 1017.77 1018.15 1018.51 1018.87 1019.20 1019.51 1019.78 1020.01 1020.19 1020.33 1020.41 1020.45 1020.43 1020.35 1020.23 1020.08 1019.88 1019.65 1019.38 1019.07 1018.71 1018.32 1017.87 1017.39 1016.85 1016.27 1015.66 1015.02 1014.36 1013.69 1013.01 1012.32
1014.60 1014.87 1015.10 1015.30 1015.51 1015.71 1015.94 1016.19 1016.48 1016.80 1017.15 1017.53 1017.93 1018.33 1018.73 1019.11 1019.45 1019.76 1020.01 1020.22 1020.37 1020.45 1020.49 1020.47 1020.41 1020.31 1020.18 1020.01 1019.81 1019.58 1019.31 1018.99 1018.63 1018.20 1017.72 1017.19 1016.60 1015.97 1015.31 1014.62 1013.91 1013.19 1012.44
Thickness
5715 5716 5717 5716 5715 5713 5711 5711 5709 5707 5705 5703 5701 5699 5697 5696 5696 5696 5695 5693 5692 5690 5688 5687 5685 5683 5681 5679 5678 5675 5673 5672 5670 5668 5668 5669 5670 5671 5671 5670 5669 5668 5668
5708 5709 5710 5710 5710 5708 5706 5705 5703 5702 5700 5698 5697 5695 5693 5691 5691 5691 5690 5689 5687 5685 5684 5682 5680 5679 5677 5675 5673 5670 5668 5666 5665 5662 5660 5659 5661 5663 5666 5664 5663 5663 5662
5703 5704 5705 5705 5705 5703 5702 5701 5699 5697 5696 5694 5693 5691 5688 5686 5684 5684 5683 5683 5682 5681 5679 5678 5676 5674 5672 5670 5669 5666 5664 5661 5659 5658 5655 5652 5651 5653 5657 5657 5657 5656 5656
5701 5702 5702 5701 5700 5700 5699 5697 5695 5693 5692 5690 5688 5685 5681 5679 5679 5678 5677 5677 5677 5676 5675 5673 5671 5669 5667 5666 5665 5663 5660 5657 5654 5652 5650 5650 5649 5646 5646 5648 5649 5648 5648
5698 5698 5699 5699 5698 5697 5695 5693 5691 5689 5688 5686 5684 5681 5678 5676 5674 5673 5672 5671 5671 5670 5669 5668 5666 5664 5663 5662 5660 5659 5656 5653 5650 5647 5645 5643 5642 5640 5638 5639 5640 5640 5641
5695 5695 5696 5695 5694 5693 5691 5689 5687 5685 5684 5682 5680 5678 5675 5672 5669 5667 5666 5665 5665 5664 5664 5662 5661 5659 5658 5657 5656 5654 5652 5649 5647 5644 5640 5638 5636 5633 5632 5631 5631 5631 5633
5690 5690 5691 5690 5689 5688 5687 5686 5684 5682 5681 5679 5677 5675 5672 5669 5666 5663 5661 5660 5659 5658 5658 5657 5656 5655 5653 5652 5651 5649 5647 5645 5642 5639 5636 5633 5631 5629 5626 5624 5622 5622 5624
5688 5687 5687 5687 5685 5685 5684 5683 5681 5679 5677 5675 5673 5671 5669 5665 5663 5661 5658 5656 5654 5653 5653 5652 5650 5650 5649 5647 5645 5643 5642 5640 5637 5635 5631 5628 5626 5623 5620 5617 5614 5613 5614
5686 5685 5685 5684 5683 5682 5681 5679 5677 5675 5673 5671 5669 5668 5665 5662 5659 5658 5656 5652 5650 5649 5649 5648 5646 5645 5643 5642 5640 5638 5636 5634 5632 5629 5626 5623 5620 5617 5614 5611 5608 5604 5603
5682 5682 5682 5681 5680 5679 5678 5676 5673 5671 5669 5668 5667 5665 5663 5660 5658 5655 5652 5649 5647 5646 5645 5644 5642 5641 5639 5638 5636 5633 5632 5630 5627 5624 5621 5617 5614 5610 5607 5604 5601 5597 5594
5680 5679 5678 5678 5677 5676 5674 5672 5670 5668 5666 5665 5663 5661 5660 5657 5655 5652 5649 5646 5643 5642 5641 5639 5638 5636 5635 5633 5631 5629 5628 5625 5622 5619 5616 5612 5608 5604 5601 5598 5594 5590 5586
5678 5676 5675 5674 5673 5672 5671 5669 5667 5665 5663 5662 5661 5658 5656 5654 5651 5648 5646 5643 5640 5638 5637 5635 5633 5632 5630 5628 5626 5625 5623 5620 5617 5614 5610 5606 5602 5598 5594 5591 5587 5583 5579
5674 5673 5671 5670 5669 5669 5667 5667 5665 5663 5661 5660 5658 5655 5653 5651 5648 5645 5643 5640 5638 5635 5633 5631 5629 5627 5626 5624 5622 5620 5618 5614 5611 5608 5604 5600 5595 5591 5588 5585 5581 5577 5573
5670 5668 5667 5666 5666 5665 5664 5663 5662 5661 5659 5657 5655 5652 5650 5648 5645 5643 5640 5638 5635 5632 5630 5627 5625 5623 5622 5620 5618 5615 5612 5608 5604 5601 5597 5593 5589 5585 5582 5578 5574 5570 5565
5667 5665 5664 5663 5662 5662 5661 5661 5660 5658 5657 5655 5652 5650 5648 5646 5644 5641 5638 5636 5633 5630 5627 5624 5622 5621 5619 5617 5614 5610 5607 5602 5598 5594 5591 5587 5584 5580 5576 5572 5568 5563 5558
5664 5664 5663 5661 5661 5660 5659 5658 5657 5656 5654 5652 5650 5648 5646 5644 5641 5639 5636 5633 5630 5627 5624 5622 5620 5617 5616 5613 5609 5606 5601 5596 5592 5588 5584 5581 5577 5573 5569 5565 5561 5557 5552
5663 5662 5661 5660 5659 5658 5656 5655 5654 5653 5651 5649 5648 5646 5644 5642 5640 5638 5634 5631 5627 5625 5622 5619 5616 5613 5611 5609 5605 5601 5596 5591 5586 5581 5578 5575 5572 5567 5562 5559 5555 5551 5546
5661 5661 5660 5659 5658 5656 5655 5653 5653 5651 5649 5646 5645 5644 5642 5640 5637 5634 5631 5628 5625 5622 5619 5616 5613 5610 5608 5605 5601 5596 5591 5585 5581 5577 5572 5568 5564 5561 5556 5552 5549 5544 5541
5661 5660 5659 5658 5656 5655 5653 5651 5649 5648 5646 5644 5643 5642 5640 5637 5635 5632 5629 5626 5623 5620 5617 5614 5611 5608 5604 5601 5597 5592 5587 5581 5577 5572 5568 5563 5559 5556 5552 5548 5544 5540 5537
5660 5658 5657 5656 5654 5653 5651 5648 5646 5645 5643 5642 5641 5640 5638 5635 5632 5630 5626 5623 5621 5617 5614 5611 5608 5604 5601 5597 5593 5588 5583 5577 5572 5568 5564 5559 5555 5552 5547 5543 5539 5536 5534
5659 5657 5655 5653 5652 5651 5648 5645 5644 5642 5642 5641 5639 5637 5635 5632 5630 5627 5625 5622 5619 5615 5612 5609 5605 5601 5598 5594 5590 5584 5578 5573 5568 5564 5560 5556 5552 5547 5543 5539 5536 5532 5530
5656 5654 5652 5650 5650 5648 5646 5643 5641 5641 5640 5639 5637 5635 5633 5631 5629 5625 5623 5620 5617 5613 5609 5606 5602 5599 5595 5591 5586 5581 5575 5570 5565 5561 5557 5552 5548 5544 5540 5537 5533 5530 5527
5653 5652 5649 5648 5647 5645 5643 5641 5641 5640 5639 5637 5635 5633 5631 5628 5626 5623 5620 5617 5614 5611 5608 5604 5600 5597 5593 5588 5583 5578 5573 5568 5563 5558 5554 5549 5545 5542 5538 5535 5531 5527 5524
5650 5649 5646 5645 5644 5643 5641 5640 5640 5639 5637 5634 5633 5630 5628 5625 5623 5620 5618 5616 5613 5610 5607 5603 5599 5595 5591 5586 5581 5576 5572 5566 5561 5556 5551 5547 5543 5539 5535 5532 5528 5524 5520
5647 5646 5643 5642 5642 5641 5640 5639 5638 5637 5634 5632 5630 5628 5626 5623 5620 5618 5616 5615 5613 5610 5607 5603 5598 5593 5589 5585 5580 5574 5570 5565 5559 5554 5550 5546 5542 5538 5535 5530 5526 5522 5518
5644 5643 5641 5640 5640 5639 5638 5638 5637 5635 5632 5630 5628 5625 5623 5621 5618 5616 5615 5614 5612 5609 5606 5601 5597 5593 5588 5584 5579 5574 5569 5563 5558 5552 5548 5543 5539 5535 5532 5527 5524 5520 5515